TimeEDT,TemperatureF,Dew PointF,Humidity,Sea Level PressureIn,VisibilityMPH,Wind Direction,Wind SpeedMPH,Gust SpeedMPH,PrecipitationIn,Events,Conditions,WindDirDegrees,DateUTC
12:52 AM,57.0,54.0,89,30.01,10.0,Calm,Calm,-,N/A,,Clear,0,2013-07-28 04:52:00
1:52 AM,55.9,53.1,90,30.02,10.0,Calm,Calm,-,N/A,,Clear,0,2013-07-28 05:52:00
2:52 AM,54.0,52.0,93,30.02,10.0,Calm,Calm,-,N/A,,Clear,0,2013-07-28 06:52:00
3:52 AM,54.0,51.1,90,30.02,10.0,Calm,Calm,-,N/A,,Scattered Clouds,0,2013-07-28 07:52:00
4:52 AM,54.0,51.1,90,30.01,10.0,Calm,Calm,-,N/A,,Clear,0,2013-07-28 08:52:00
5:52 AM,53.1,50.0,89,30.02,10.0,Calm,Calm,-,N/A,,Clear,0,2013-07-28 09:52:00
6:52 AM,57.0,54.0,89,30.02,10.0,Calm,Calm,-,0.00,,Clear,0,2013-07-28 10:52:00
7:52 AM,63.0,57.0,81,30.02,10.0,Calm,Calm,-,N/A,,Clear,0,2013-07-28 11:52:00
8:52 AM,64.9,57.9,78,30.03,10.0,Calm,Calm,-,N/A,,Scattered Clouds,0,2013-07-28 12:52:00
9:52 AM,73.0,57.0,57,30.01,10.0,Calm,Calm,-,N/A,,Clear,0,2013-07-28 13:52:00
10:52 AM,75.0,57.9,55,30.01,10.0,Calm,Calm,-,N/A,,Clear,0,2013-07-28 14:52:00
11:52 AM,77.0,55.9,48,30.00,10.0,Calm,Calm,-,N/A,,Clear,0,2013-07-28 15:52:00
12:52 PM,79.0,57.9,48,29.98,10.0,South,8.1,-,N/A,,Clear,170,2013-07-28 16:52:00
1:52 PM,78.1,60.1,54,29.97,10.0,SSE,10.4,16.1,N/A,,Partly Cloudy,160,2013-07-28 17:52:00
2:52 PM,79.0,61.0,54,29.97,10.0,SE,10.4,-,N/A,,Clear,140,2013-07-28 18:52:00
3:52 PM,78.1,61.0,56,29.97,10.0,SSE,11.5,20.7,N/A,,Overcast,160,2013-07-28 19:52:00
4:52 PM,77.0,62.1,60,29.97,10.0,South,10.4,18.4,N/A,,Clear,170,2013-07-28 20:52:00
5:52 PM,75.0,62.1,64,29.97,10.0,SSE,10.4,18.4,N/A,,Clear,160,2013-07-28 21:52:00
6:52 PM,73.0,62.1,68,29.98,10.0,SSE,9.2,18.4,N/A,,Mostly Cloudy,160,2013-07-28 22:52:00
7:52 PM,72.0,62.1,71,29.99,10.0,South,10.4,-,N/A,,Overcast,170,2013-07-28 23:52:00
8:52 PM,71.1,62.1,73,29.99,10.0,South,6.9,-,N/A,,Overcast,180,2013-07-29 00:52:00
9:52 PM,70.0,63.0,78,29.99,10.0,Variable,6.9,-,0.00,Rain,Light Rain,0,2013-07-29 01:52:00
10:52 PM,69.1,63.0,81,29.98,10.0,Variable,3.5,-,0.01,,Mostly Cloudy,0,2013-07-29 02:52:00
11:52 PM,69.1,63.0,81,29.98,10.0,Calm,Calm,-,0.00,,Overcast,0,2013-07-29 03:52:00